QPF
0.02 0.01 0.01 0.01 0.02 0.03 0.04 0.05 0.04 0.04 0.03 0.04 0.04 0.05 0.06 0.06 0.05 0.05 0.04 0.04 0.03 0.03 0.03 0.04 0.03 0.04 0.04 0.03 0.02 0.02 0.02 0.03 0.02 0.02 0.02 0.02 0.02 0.02 0.01 0.01 0.01 0.01 0.01
0.02 0.01 0.02 0.01 0.01 0.02 0.02 0.04 0.07 0.07 0.07 0.06 0.06 0.05 0.06 0.07 0.06 0.06 0.05 0.04 0.03 0.02 0.02 0.03 0.04 0.04 0.04 0.04 0.04 0.02 0.02 0.02 0.02 0.01 0.01 0.02 0.02 0.01 0.01 0.01 0.01 0.01 0.01
0.01 0.01 0.03 0.01 0.01 0.01 0.01 0.02 0.05 0.09 0.10 0.11 0.11 0.10 0.07 0.06 0.06 0.07 0.05 0.04 0.03 0.02 0.03 0.03 0.03 0.04 0.04 0.05 0.05 0.03 0.03 0.03 0.01 0.01 0.01 0.01 0.01 0.01 0.01 0.01 0.01 0.01 0.01
0.00 0.00 0.00 0.01 0.01 0.01 0.03 0.03 0.05 0.08 0.09 0.09 0.09 0.10 0.12 0.12 0.10 0.09 0.08 0.08 0.06 0.04 0.03 0.03 0.03 0.03 0.04 0.06 0.07 0.06 0.04 0.04 0.02 0.01 0.01 0.01 0.01 0.01 0.01 0.01 0.01 0.00 0.00
0.00 0.00 0.00 0.00 0.00 0.01 0.03 0.04 0.06 0.08 0.08 0.06 0.05 0.05 0.06 0.08 0.08 0.09 0.10 0.10 0.09 0.07 0.06 0.04 0.04 0.04 0.04 0.04 0.06 0.08 0.04 0.03 0.02 0.01 0.01 0.01 0.01 0.01 0.01 0.01 0.01 0.01 0.00
0.00 0.01 0.01 0.01 0.00 0.01 0.02 0.03 0.06 0.07 0.05 0.04 0.05 0.04 0.03 0.03 0.02 0.02 0.04 0.06 0.07 0.07 0.07 0.07 0.06 0.07 0.05 0.03 0.04 0.06 0.04 0.02 0.02 0.01 0.01 0.02 0.03 0.02 0.01 0.01 0.02 0.02 0.02
0.00 0.00 0.01 0.01 0.02 0.02 0.02 0.02 0.05 0.08 0.07 0.04 0.03 0.02 0.03 0.03 0.03 0.03 0.03 0.05 0.06 0.06 0.06 0.06 0.06 0.06 0.06 0.04 0.04 0.04 0.03 0.02 0.02 0.02 0.02 0.02 0.02 0.02 0.02 0.02 0.02 0.01 0.02
0.00 0.00 0.01 0.02 0.02 0.02 0.02 0.02 0.04 0.08 0.06 0.02 0.02 0.02 0.03 0.02 0.02 0.02 0.03 0.04 0.05 0.07 0.06 0.05 0.05 0.06 0.06 0.05 0.05 0.04 0.04 0.03 0.02 0.02 0.01 0.01 0.01 0.01 0.01 0.02 0.01 0.01 0.01
0.01 0.00 0.01 0.01 0.01 0.01 0.02 0.02 0.02 0.05 0.04 0.02 0.02 0.02 0.02 0.02 0.02 0.02 0.03 0.03 0.03 0.05 0.07 0.05 0.04 0.05 0.06 0.05 0.05 0.04 0.03 0.02 0.02 0.02 0.02 0.02 0.02 0.01 0.00 0.01 0.01 0.01 0.02
0.01 0.01 0.01 0.01 0.01 0.01 0.02 0.03 0.02 0.03 0.03 0.02 0.02 0.03 0.03 0.02 0.02 0.01 0.03 0.02 0.02 0.04 0.05 0.04 0.03 0.04 0.04 0.05 0.05 0.04 0.03 0.03 0.02 0.02 0.03 0.03 0.03 0.03 0.02 0.02 0.01 0.01 0.02
0.01 0.01 0.01 0.01 0.01 0.02 0.02 0.02 0.03 0.02 0.02 0.03 0.03 0.03 0.04 0.03 0.02 0.01 0.03 0.02 0.03 0.04 0.03 0.02 0.02 0.03 0.03 0.04 0.05 0.04 0.03 0.02 0.02 0.03 0.03 0.03 0.03 0.03 0.03 0.03 0.02 0.01 0.01
0.01 0.01 0.01 0.01 0.01 0.03 0.02 0.01 0.02 0.02 0.02 0.02 0.03 0.03 0.06 0.05 0.03 0.03 0.04 0.03 0.03 0.03 0.03 0.02 0.02 0.02 0.02 0.02 0.04 0.04 0.03 0.02 0.02 0.02 0.03 0.02 0.02 0.02 0.02 0.03 0.02 0.01 0.01
0.01 0.01 0.01 0.01 0.01 0.02 0.01 0.01 0.02 0.01 0.01 0.01 0.02 0.03 0.05 0.04 0.05 0.04 0.05 0.03 0.03 0.03 0.03 0.02 0.01 0.02 0.01 0.02 0.03 0.03 0.03 0.02 0.02 0.02 0.02 0.02 0.02 0.03 0.03 0.03 0.02 0.01 0.01
0.01 0.01 0.00 0.01 0.01 0.01 0.01 0.02 0.02 0.01 0.01 0.01 0.01 0.02 0.03 0.04 0.06 0.05 0.04 0.03 0.02 0.02 0.02 0.02 0.01 0.01 0.02 0.02 0.02 0.02 0.02 0.02 0.02 0.02 0.02 0.02 0.03 0.02 0.03 0.03 0.02 0.02 0.02
0.00 0.01 0.00 0.00 0.00 0.01 0.01 0.01 0.02 0.01 0.01 0.01 0.01 0.01 0.02 0.03 0.06 0.05 0.03 0.03 0.02 0.02 0.02 0.02 0.01 0.01 0.02 0.02 0.01 0.02 0.02 0.01 0.02 0.02 0.02 0.02 0.02 0.03 0.03 0.03 0.03 0.03 0.03
0.01 0.01 0.01 0.01 0.01 0.01 0.00 0.00 0.00 0.00 0.00 0.01 0.01 0.02 0.02 0.03 0.04 0.03 0.02 0.02 0.02 0.02 0.02 0.02 0.01 0.01 0.01 0.02 0.02 0.02 0.01 0.01 0.01 0.01 0.01 0.01 0.02 0.03 0.03 0.03 0.03 0.03 0.03
0.01 0.02 0.02 0.02 0.01 0.01 0.01 0.01 0.01 0.01 0.01 0.01 0.01 0.02 0.02 0.03 0.03 0.03 0.03 0.03 0.02 0.02 0.01 0.01 0.01 0.01 0.01 0.02 0.03 0.02 0.01 0.01 0.01 0.02 0.02 0.02 0.02 0.02 0.02 0.03 0.03 0.03 0.03
0.01 0.01 0.01 0.01 0.01 0.01 0.01 0.01 0.01 0.01 0.01 0.02 0.02 0.02 0.02 0.03 0.02 0.02 0.03 0.03 0.02 0.02 0.02 0.01 0.01 0.01 0.01 0.01 0.01 0.01 0.01 0.01 0.01 0.01 0.01 0.02 0.02 0.03 0.03 0.03 0.03 0.03 0.03
0.00 0.00 0.01 0.01 0.01 0.01 0.00 0.00 0.00 0.01 0.01 0.02 0.02 0.02 0.02 0.02 0.01 0.02 0.02 0.02 0.01 0.01 0.01 0.01 0.01 0.01 0.02 0.02 0.02 0.02 0.01 0.01 0.01 0.01 0.01 0.01 0.01 0.03 0.03 0.03 0.03 0.03 0.03
0.01 0.01 0.01 0.01 0.00 0.01 0.01 0.01 0.01 0.02 0.01 0.01 0.01 0.01 0.01 0.01 0.01 0.02 0.01 0.01 0.01 0.01 0.01 0.01 0.01 0.01 0.02 0.02 0.02 0.02 0.01 0.01 0.01 0.01 0.02 0.03 0.03 0.03 0.02 0.02 0.02 0.02 0.01
0.01 0.02 0.01 0.00 0.00 0.00 0.00 0.00 0.00 0.00 0.00 0.00 0.00 0.00 0.01 0.01 0.01 0.01 0.01 0.01 0.01 0.01 0.01 0.01 0.01 0.01 0.01 0.01 0.01 0.02 0.02 0.02 0.02 0.02 0.02 0.03 0.04 0.04 0.03 0.02 0.02 0.01 0.02
0.02 0.02 0.01 0.00 0.00 0.00 0.00 0.00 0.00 0.00 0.00 0.00 0.01 0.01 0.01 0.01 0.01 0.01 0.01 0.01 0.01 0.01 0.01 0.01 0.01 0.00 0.00 0.01 0.01 0.01 0.01 0.02 0.02 0.02 0.01 0.01 0.02 0.03 0.03 0.03 0.03 0.03 0.03
0.02 0.03 0.02 0.01 0.01 0.01 0.00 0.00 0.00 0.00 0.00 0.00 0.00 0.00 0.00 0.01 0.01 0.01 0.01 0.01 0.01 0.01 0.01 0.01 0.01 0.01 0.00 0.01 0.01 0.01 0.01 0.01 0.01 0.01 0.01 0.01 0.01 0.02 0.03 0.03 0.04 0.04 0.04
0.01 0.01 0.02 0.02 0.01 0.01 0.01 0.00 0.00 0.00 0.00 0.00 0.00 0.01 0.01 0.01 0.01 0.01 0.01 0.01 0.01 0.01 0.00 0.01 0.01 0.01 0.01 0.01 0.01 0.01 0.01 0.01 0.01 0.02 0.02 0.02 0.02 0.02 0.02 0.03 0.03 0.03 0.04
0.01 0.01 0.02 0.02 0.01 0.01 0.01 0.01 0.01 0.00 0.00 0.00 0.00 0.01 0.01 0.01 0.01 0.01 0.02 0.01 0.01 0.01 0.01 0.01 0.01 0.01 0.01 0.01 0.01 0.01 0.01 0.01 0.01 0.02 0.02 0.02 0.02 0.02 0.02 0.02 0.02 0.02 0.03
0.01 0.01 0.01 0.01 0.01 0.01 0.01 0.01 0.01 0.01 0.00 0.00 0.00 0.01 0.01 0.01 0.02 0.02 0.01 0.01 0.01 0.00 0.00 0.00 0.01 0.01 0.01 0.02 0.02 0.01 0.01 0.02 0.02 0.02 0.02 0.02 0.01 0.01 0.01 0.01 0.01 0.01 0.02
MSLP
1019.65 1019.60 1019.53 1019.44 1019.30 1019.12 1018.92 1018.73 1018.59 1018.52 1018.55 1018.66 1018.84 1019.05 1019.25 1019.39 1019.44 1019.38 1019.21 1018.96 1018.68 1018.42 1018.24 1018.19 1018.30 1018.59 1019.04 1019.63 1020.31 1021.03 1021.75 1022.41 1022.99 1023.48 1023.88 1024.18 1024.42 1024.59 1024.70 1024.76 1024.78 1024.75 1024.68
1019.50 1019.50 1019.50 1019.47 1019.39 1019.28 1019.15 1019.01 1018.92 1018.90 1018.96 1019.09 1019.28 1019.48 1019.66 1019.77 1019.79 1019.70 1019.52 1019.27 1018.99 1018.75 1018.59 1018.55 1018.67 1018.93 1019.34 1019.86 1020.45 1021.08 1021.70 1022.29 1022.83 1023.31 1023.73 1024.10 1024.42 1024.70 1024.94 1025.13 1025.26 1025.34 1025.36
1019.26 1019.33 1019.40 1019.45 1019.47 1019.44 1019.39 1019.33 1019.31 1019.35 1019.44 1019.60 1019.79 1019.98 1020.14 1020.22 1020.21 1020.10 1019.92 1019.68 1019.43 1019.22 1019.08 1019.06 1019.17 1019.40 1019.73 1020.16 1020.63 1021.13 1021.62 1022.10 1022.56 1023.00 1023.42 1023.84 1024.24 1024.62 1024.99 1025.31 1025.58 1025.79 1025.92
1019.00 1019.14 1019.29 1019.43 1019.53 1019.59 1019.63 1019.67 1019.72 1019.82 1019.96 1020.14 1020.34 1020.51 1020.65 1020.71 1020.68 1020.57 1020.39 1020.18 1019.97 1019.80 1019.70 1019.70 1019.80 1019.99 1020.25 1020.56 1020.90 1021.25 1021.60 1021.96 1022.31 1022.68 1023.08 1023.50 1023.96 1024.42 1024.89 1025.33 1025.73 1026.07 1026.33
1018.78 1018.99 1019.21 1019.42 1019.60 1019.75 1019.88 1019.99 1020.12 1020.28 1020.46 1020.67 1020.86 1021.03 1021.15 1021.20 1021.16 1021.06 1020.90 1020.73 1020.57 1020.46 1020.41 1020.44 1020.53 1020.69 1020.88 1021.09 1021.30 1021.51 1021.72 1021.94 1022.19 1022.47 1022.82 1023.23 1023.69 1024.20 1024.73 1025.26 1025.75 1026.19 1026.56
1018.68 1018.94 1019.22 1019.48 1019.72 1019.93 1020.12 1020.30 1020.49 1020.69 1020.91 1021.13 1021.34 1021.50 1021.62 1021.66 1021.63 1021.55 1021.43 1021.31 1021.21 1021.16 1021.16 1021.22 1021.33 1021.46 1021.60 1021.73 1021.84 1021.93 1022.02 1022.12 1022.27 1022.47 1022.74 1023.10 1023.54 1024.04 1024.59 1025.15 1025.69 1026.19 1026.64
1018.73 1019.03 1019.33 1019.63 1019.90 1020.14 1020.37 1020.59 1020.81 1021.04 1021.28 1021.52 1021.73 1021.90 1022.02 1022.07 1022.06 1022.01 1021.94 1021.88 1021.85 1021.86 1021.91 1022.01 1022.13 1022.25 1022.36 1022.44 1022.48 1022.50 1022.51 1022.52 1022.58 1022.70 1022.90 1023.19 1023.57 1024.02 1024.53 1025.06 1025.60 1026.12 1026.59
1018.94 1019.26 1019.57 1019.87 1020.15 1020.40 1020.63 1020.86 1021.09 1021.34 1021.59 1021.83 1022.05 1022.23 1022.35 1022.42 1022.45 1022.44 1022.42 1022.42 1022.45 1022.52 1022.62 1022.75 1022.89 1023.02 1023.12 1023.18 1023.20 1023.18 1023.14 1023.11 1023.11 1023.17 1023.31 1023.52 1023.81 1024.18 1024.60 1025.07 1025.55 1026.03 1026.50
1019.26 1019.59 1019.90 1020.19 1020.44 1020.67 1020.89 1021.11 1021.34 1021.59 1021.84 1022.09 1022.31 1022.50 1022.65 1022.75 1022.80 1022.84 1022.88 1022.93 1023.01 1023.13 1023.27 1023.43 1023.60 1023.74 1023.85 1023.91 1023.93 1023.91 1023.88 1023.84 1023.82 1023.84 1023.92 1024.06 1024.26 1024.53 1024.85 1025.21 1025.60 1026.01 1026.43
1019.64 1019.97 1020.27 1020.53 1020.76 1020.96 1021.15 1021.35 1021.57 1021.81 1022.06 1022.31 1022.55 1022.75 1022.92 1023.05 1023.16 1023.24 1023.32 1023.42 1023.55 1023.70 1023.87 1024.05 1024.23 1024.39 1024.51 1024.60 1024.64 1024.65 1024.65 1024.63 1024.62 1024.64 1024.68 1024.77 1024.89 1025.05 1025.26 1025.50 1025.79 1026.10 1026.45
1019.99 1020.32 1020.61 1020.84 1021.04 1021.21 1021.39 1021.57 1021.78 1022.02 1022.27 1022.53 1022.78 1023.01 1023.21 1023.38 1023.53 1023.66 1023.78 1023.92 1024.08 1024.25 1024.44 1024.63 1024.81 1024.98 1025.11 1025.22 1025.30 1025.36 1025.40 1025.43 1025.45 1025.48 1025.52 1025.57 1025.63 1025.71 1025.81 1025.95 1026.12 1026.35 1026.61
1020.24 1020.57 1020.85 1021.07 1021.24 1021.40 1021.57 1021.75 1021.96 1022.21 1022.48 1022.76 1023.04 1023.30 1023.54 1023.75 1023.93 1024.10 1024.27 1024.44 1024.62 1024.80 1024.99 1025.18 1025.36 1025.52 1025.67 1025.80 1025.91 1026.01 1026.10 1026.18 1026.25 1026.31 1026.36 1026.39 1026.42 1026.44 1026.47 1026.52 1026.60 1026.74 1026.93
1020.35 1020.69 1020.96 1021.16 1021.34 1021.50 1021.68 1021.88 1022.12 1022.40 1022.70 1023.01 1023.32 1023.62 1023.90 1024.15 1024.37 1024.58 1024.79 1024.98 1025.18 1025.37 1025.56 1025.74 1025.90 1026.06 1026.20 1026.33 1026.47 1026.59 1026.72 1026.85 1026.96 1027.06 1027.14 1027.18 1027.20 1027.19 1027.17 1027.17 1027.19 1027.26 1027.39
1020.32 1020.65 1020.91 1021.13 1021.32 1021.50 1021.71 1021.95 1022.23 1022.55 1022.90 1023.26 1023.61 1023.95 1024.27 1024.56 1024.82 1025.07 1025.31 1025.53 1025.74 1025.94 1026.13 1026.30 1026.45 1026.59 1026.71 1026.84 1026.98 1027.12 1027.27 1027.43 1027.58 1027.72 1027.82 1027.89 1027.92 1027.91 1027.88 1027.85 1027.84 1027.87 1027.95
1020.15 1020.48 1020.75 1020.97 1021.18 1021.41 1021.66 1021.96 1022.30 1022.67 1023.07 1023.48 1023.88 1024.26 1024.61 1024.94 1025.25 1025.53 1025.80 1026.05 1026.28 1026.49 1026.68 1026.84 1026.98 1027.10 1027.21 1027.33 1027.45 1027.59 1027.75 1027.92 1028.10 1028.26 1028.40 1028.50 1028.56 1028.57 1028.55 1028.53 1028.51 1028.52 1028.57
1019.88 1020.21 1020.48 1020.72 1020.97 1021.24 1021.55 1021.90 1022.31 1022.74 1023.19 1023.64 1024.08 1024.50 1024.89 1025.25 1025.59 1025.91 1026.20 1026.48 1026.74 1026.97 1027.17 1027.34 1027.47 1027.59 1027.68 1027.78 1027.88 1028.01 1028.16 1028.34 1028.52 1028.71 1028.87 1029.00 1029.10 1029.15 1029.16 1029.15 1029.14 1029.15 1029.19
1019.55 1019.87 1020.15 1020.42 1020.70 1021.02 1021.38 1021.79 1022.25 1022.73 1023.23 1023.72 1024.19 1024.64 1025.05 1025.44 1025.81 1026.16 1026.48 1026.80 1027.09 1027.35 1027.57 1027.75 1027.89 1028.00 1028.09 1028.18 1028.27 1028.38 1028.52 1028.68 1028.87 1029.06 1029.25 1029.41 1029.54 1029.63 1029.68 1029.71 1029.72 1029.73 1029.76
1019.17 1019.50 1019.80 1020.10 1020.41 1020.77 1021.18 1021.63 1022.13 1022.65 1023.18 1023.69 1024.18 1024.64 1025.08 1025.48 1025.87 1026.24 1026.60 1026.95 1027.27 1027.57 1027.82 1028.03 1028.20 1028.32 1028.42 1028.50 1028.58 1028.68 1028.80 1028.96 1029.14 1029.34 1029.54 1029.72 1029.88 1030.01 1030.10 1030.16 1030.20 1030.23 1030.26
1018.76 1019.11 1019.44 1019.77 1020.12 1020.51 1020.95 1021.43 1021.95 1022.49 1023.03 1023.55 1024.05 1024.51 1024.95 1025.37 1025.77 1026.16 1026.55 1026.93 1027.29 1027.62 1027.92 1028.17 1028.36 1028.52 1028.63 1028.72 1028.80 1028.90 1029.02 1029.16 1029.34 1029.54 1029.75 1029.95 1030.13 1030.29 1030.41 1030.50 1030.56 1030.60 1030.63
1018.33 1018.72 1019.08 1019.44 1019.82 1020.24 1020.69 1021.19 1021.71 1022.25 1022.79 1023.30 1023.80 1024.26 1024.70 1025.12 1025.53 1025.94 1026.35 1026.75 1027.15 1027.52 1027.86 1028.15 1028.39 1028.57 1028.72 1028.83 1028.93 1029.03 1029.15 1029.29 1029.46 1029.66 1029.87 1030.07 1030.27 1030.45 1030.59 1030.70 1030.77 1030.82 1030.85
1017.88 1018.31 1018.72 1019.11 1019.51 1019.94 1020.41 1020.90 1021.42 1021.95 1022.47 1022.97 1023.45 1023.91 1024.34 1024.76 1025.18 1025.60 1026.03 1026.46 1026.88 1027.29 1027.67 1027.99 1028.28 1028.50 1028.68 1028.83 1028.95 1029.06 1029.19 1029.33 1029.50 1029.68 1029.88 1030.09 1030.29 1030.46 1030.61 1030.73 1030.82 1030.87 1030.90
1017.39 1017.87 1018.32 1018.74 1019.17 1019.61 1020.08 1020.57 1021.07 1021.58 1022.08 1022.57 1023.03 1023.48 1023.91 1024.34 1024.76 1025.19 1025.63 1026.08 1026.53 1026.96 1027.36 1027.73 1028.05 1028.31 1028.53 1028.71 1028.85 1028.99 1029.12 1029.27 1029.43 1029.60 1029.79 1029.98 1030.16 1030.33 1030.47 1030.59 1030.67 1030.73 1030.76
1016.88 1017.40 1017.88 1018.34 1018.78 1019.23 1019.70 1020.18 1020.66 1021.15 1021.64 1022.11 1022.57 1023.01 1023.44 1023.87 1024.30 1024.74 1025.19 1025.65 1026.11 1026.56 1026.99 1027.38 1027.72 1028.02 1028.27 1028.48 1028.65 1028.81 1028.95 1029.09 1029.24 1029.40 1029.57 1029.73 1029.90 1030.04 1030.17 1030.27 1030.34 1030.39 1030.42
1016.34 1016.89 1017.40 1017.88 1018.34 1018.79 1019.25 1019.72 1020.20 1020.67 1021.14 1021.60 1022.06 1022.50 1022.93 1023.37 1023.81 1024.25 1024.71 1025.18 1025.65 1026.11 1026.55 1026.95 1027.32 1027.65 1027.92 1028.16 1028.35 1028.52 1028.67 1028.81 1028.95 1029.09 1029.23 1029.36 1029.49 1029.61 1029.71 1029.79 1029.85 1029.90 1029.92
1015.80 1016.36 1016.88 1017.37 1017.83 1018.29 1018.75 1019.20 1019.67 1020.13 1020.59 1021.05 1021.51 1021.95 1022.40 1022.84 1023.29 1023.74 1024.20 1024.67 1025.14 1025.60 1026.05 1026.47 1026.85 1027.19 1027.49 1027.74 1027.95 1028.13 1028.29 1028.43 1028.55 1028.67 1028.78 1028.88 1028.98 1029.06 1029.14 1029.20 1029.25 1029.28 1029.31
1015.27 1015.82 1016.33 1016.82 1017.28 1017.73 1018.18 1018.63 1019.08 1019.54 1019.99 1020.45 1020.91 1021.36 1021.82 1022.27 1022.72 1023.18 1023.65 1024.12 1024.59 1025.05 1025.49 1025.92 1026.31 1026.66 1026.97 1027.24 1027.47 1027.67 1027.82 1027.96 1028.07 1028.17 1028.25 1028.32 1028.39 1028.45 1028.50 1028.55 1028.58 1028.61 1028.64
Thickness
5742 5742 5740 5739 5738 5736 5735 5734 5732 5731 5729 5727 5725 5722 5721 5721 5720 5719 5717 5716 5716 5715 5713 5711 5710 5707 5706 5704 5703 5701 5699 5698 5698 5696 5694 5695 5695 5694 5692 5691 5691 5691 5689
5737 5737 5736 5735 5734 5732 5731 5730 5729 5727 5726 5723 5722 5720 5718 5718 5716 5714 5713 5713 5712 5711 5709 5709 5707 5704 5701 5700 5699 5697 5695 5694 5694 5693 5691 5688 5687 5686 5687 5686 5686 5686 5685
5734 5734 5732 5732 5731 5729 5728 5726 5725 5724 5722 5720 5718 5716 5714 5713 5712 5711 5709 5709 5708 5707 5706 5705 5703 5701 5700 5697 5696 5694 5692 5690 5690 5692 5688 5684 5681 5681 5682 5682 5682 5680 5680
5732 5730 5729 5728 5727 5727 5726 5724 5723 5721 5719 5717 5715 5713 5710 5709 5708 5708 5707 5705 5704 5703 5702 5701 5700 5698 5697 5695 5693 5692 5690 5687 5685 5686 5686 5687 5683 5679 5675 5677 5678 5676 5675
5729 5727 5726 5725 5725 5723 5722 5720 5719 5717 5716 5714 5711 5709 5708 5707 5707 5705 5703 5703 5701 5700 5699 5698 5697 5696 5694 5692 5690 5688 5687 5686 5683 5683 5683 5681 5679 5681 5676 5670 5671 5671 5671
5725 5724 5722 5721 5720 5718 5716 5715 5713 5712 5711 5710 5708 5706 5704 5703 5702 5701 5700 5700 5699 5697 5696 5694 5694 5693 5691 5690 5687 5685 5684 5683 5682 5681 5681 5678 5676 5675 5674 5670 5668 5666 5666
5722 5720 5717 5715 5714 5712 5711 5710 5709 5707 5707 5706 5705 5704 5702 5701 5700 5699 5698 5697 5696 5695 5694 5692 5691 5690 5688 5687 5685 5683 5682 5681 5679 5678 5678 5678 5676 5675 5672 5669 5666 5663 5662
5717 5714 5713 5711 5710 5709 5708 5707 5705 5704 5703 5702 5702 5701 5700 5698 5698 5696 5697 5696 5695 5693 5691 5690 5689 5687 5685 5684 5682 5681 5679 5678 5677 5676 5675 5674 5673 5672 5670 5667 5664 5660 5659
5711 5709 5708 5708 5707 5705 5704 5703 5702 5701 5700 5699 5698 5697 5697 5696 5695 5694 5694 5693 5692 5691 5689 5688 5686 5684 5682 5680 5679 5677 5676 5675 5674 5673 5672 5671 5670 5669 5668 5667 5664 5660 5656
5706 5705 5705 5704 5703 5703 5701 5700 5698 5698 5696 5695 5694 5693 5693 5693 5691 5691 5690 5689 5689 5688 5686 5685 5684 5681 5679 5678 5676 5674 5673 5671 5670 5668 5668 5668 5668 5667 5665 5663 5662 5660 5658
5702 5700 5700 5700 5700 5699 5697 5695 5694 5693 5692 5691 5690 5689 5689 5688 5688 5687 5686 5685 5685 5684 5683 5681 5680 5678 5676 5674 5672 5671 5670 5668 5667 5667 5666 5664 5664 5663 5661 5660 5658 5656 5655
5699 5697 5696 5695 5695 5694 5693 5692 5691 5690 5688 5687 5686 5685 5684 5683 5683 5682 5682 5681 5681 5680 5679 5678 5676 5674 5672 5670 5669 5667 5666 5665 5664 5664 5663 5661 5660 5659 5658 5656 5654 5652 5651
5695 5694 5692 5691 5690 5690 5689 5688 5687 5686 5684 5683 5682 5682 5681 5680 5679 5679 5678 5677 5676 5675 5674 5673 5672 5670 5668 5667 5665 5664 5663 5663 5662 5661 5660 5659 5657 5656 5654 5652 5651 5649 5647
5690 5689 5687 5687 5687 5686 5685 5685 5683 5682 5681 5680 5678 5677 5676 5675 5675 5674 5673 5672 5671 5670 5670 5669 5667 5666 5664 5662 5661 5660 5660 5659 5658 5657 5656 5656 5654 5653 5651 5649 5647 5645 5642
5684 5683 5683 5683 5683 5682 5682 5681 5680 5679 5677 5676 5674 5673 5672 5671 5670 5668 5667 5667 5666 5665 5665 5664 5663 5661 5659 5658 5657 5656 5655 5654 5653 5652 5651 5650 5648 5647 5645 5645 5643 5641 5639
5678 5679 5679 5679 5679 5679 5679 5678 5676 5675 5674 5672 5670 5668 5667 5665 5663 5663 5662 5661 5659 5659 5658 5658 5657 5655 5654 5650 5648 5649 5649 5650 5649 5647 5646 5645 5642 5640 5638 5637 5636 5635 5635
5673 5673 5674 5675 5675 5676 5676 5674 5674 5672 5670 5668 5666 5663 5661 5659 5658 5657 5656 5655 5654 5653 5652 5651 5650 5649 5647 5644 5642 5641 5644 5644 5644 5643 5642 5640 5639 5637 5636 5633 5630 5629 5628
5669 5669 5670 5671 5672 5673 5672 5671 5669 5667 5665 5663 5661 5659 5656 5655 5653 5652 5651 5650 5649 5648 5646 5646 5645 5643 5641 5638 5636 5636 5638 5639 5638 5637 5637 5635 5635 5633 5632 5630 5629 5627 5625
5664 5665 5666 5666 5667 5667 5667 5666 5664 5663 5660 5658 5657 5655 5653 5650 5648 5647 5646 5645 5644 5643 5641 5640 5639 5637 5636 5633 5631 5630 5633 5633 5633 5632 5631 5630 5629 5626 5624 5625 5624 5623 5620
5659 5660 5660 5661 5661 5661 5661 5660 5659 5658 5656 5654 5652 5651 5649 5646 5644 5643 5642 5641 5639 5637 5636 5634 5634 5633 5632 5628 5626 5625 5627 5627 5627 5625 5625 5622 5621 5619 5618 5620 5620 5619 5618
5652 5653 5654 5654 5655 5655 5654 5653 5653 5652 5651 5649 5647 5645 5644 5642 5640 5638 5637 5635 5634 5632 5630 5629 5628 5627 5626 5623 5621 5619 5621 5621 5621 5620 5619 5618 5614 5612 5612 5613 5615 5614 5612
5646 5646 5646 5647 5647 5647 5647 5647 5646 5646 5645 5643 5641 5639 5638 5637 5635 5632 5631 5630 5628 5626 5625 5623 5622 5622 5621 5618 5616 5614 5614 5614 5615 5615 5614 5613 5608 5607 5606 5606 5606 5605 5604
5639 5639 5639 5639 5640 5640 5640 5640 5640 5639 5638 5637 5635 5634 5633 5631 5629 5627 5624 5623 5621 5620 5619 5618 5617 5616 5616 5613 5610 5608 5607 5606 5608 5609 5607 5605 5603 5601 5601 5600 5599 5599 5600
5632 5632 5633 5633 5634 5634 5633 5633 5633 5633 5632 5631 5630 5629 5628 5626 5624 5621 5620 5617 5616 5615 5614 5613 5611 5610 5610 5608 5606 5604 5602 5600 5600 5601 5599 5597 5596 5596 5595 5595 5595 5595 5595
5626 5626 5626 5627 5627 5628 5627 5627 5627 5626 5626 5625 5624 5623 5622 5620 5618 5615 5614 5612 5612 5610 5609 5609 5608 5606 5605 5604 5601 5600 5599 5598 5597 5595 5594 5593 5593 5593 5593 5593 5592 5591 5590
5620 5620 5620 5620 5621 5621 5621 5620 5620 5619 5619 5619 5618 5616 5615 5613 5611 5609 5606 5603 5603 5602 5600 5600 5600 5600 5598 5596 5594 5592 5591 5590 5588 5587 5589 5589 5589 5589 5588 5588 5587 5586 5585